Погода в Гундоровском

Россия / Ростовская область     46°46′50″N   41°53′39″E
темп.,
°C
ветер,
м/с
пор.,
м/с
влажн.,
%
обл.,
%
осадки,
мм/ч
давл.,
гПа
погр.,
м
11 апреля, вс
вс1100:00+7с3791100 0.0 1020238
03:00+6с4794100 0.0 1020214
06:00+5с4794100 0.0 1020206
09:00+8ссв458382 0.0 1020460
12:00+12св447296 0.0 1020890
15:00+13ссв4672100 0.0 1019803
18:00+13с6980100 0.0 1018264
21:00+10ссв5989100 0.0 1018129
12 апреля, пн
пн1200:00+11всв51280100 0.0 1017214
03:00+10в4869100 0.0 1017117
06:00+10всв3772100 0.0 1018133
09:00+13вюв3865100 0.0 1019492
12:00+15юв4758100 0.1 1020755
15:00+15ююв2464100 0.1 1020471
18:00+13зюз2277100 0.0 102152
21:00+12ссв1177100 0.0 102223
13 апреля, вт
вт1300:00+11в3777100 0.0 1021165
03:00+9в357686 0.0 102175
06:00+10вюв388198 0.1 1022206
09:00+11юв368399 0.2 1022310
12:00+11вюв2384100 0.0 1022311
15:00+12вюв2480100 0.5 1022216
18:00+11в008599 0.2 102112
21:00+11в228397 0.2 102113
14 апреля, ср
ср1400:00+9в338425 0.0 101940
03:00+9в4670100 0.0 101991
06:00+8всв3562100 0.0 101868
09:00+13вюв3551100 0.0 1018421
12:00+17вюв2342100 0.0 1017718
15:00+18ю4643100 0.0 1016866
18:00+13ююв497792 0.1 1017432
21:00+11ю2281100 0.1 101721
15 апреля, чт
чт1500:00+10в3385100 0.0 101734
03:00+9юв2286100 0.0 101624
06:00+9ю118999 0.0 101611
09:00+14ююв116886 0.0 1016328
12:00+18ююв2347100 0.0 10151454
15:00+19вюв234131 0.0 10141797
18:00+17юз3456100 0.0 101486
21:00+13зюз22645 0.0 101416